Location: Unspecified
(0.0000°N, 0.0000°E)
Time: 18:04:54
(UTC+00:00)

Vanguard 3 - Pass Details

Date: 03 October 2023
Orbit: 507 x 3241 km, 33.3° (Epoch: 29 November)

Event Time Altitude Azimuth Distance (km) Brightness Sun altitude
Rises 10:59:55 0° 220° (SW) 5,852 11.5 77.1°
Reaches altitude 10° 11:03:39 10° 214° (SSW) 5,165 11.4 78.0°
Maximum altitude 11:19:20 46° 144° (SE) 3,832 11.6 81.6°
Drops below altitude 10° 11:37:41 10° 77° (ENE) 6,023 11.8 85.1°
Sets 11:42:22 0° 72° (ENE) 6,859 11.9 85.7°
